[Iaude] MPEC A104: 2024 AL2 [a=1.99,e=0.50,i=2.5,H=27.5]
    mpec at marsden.cfa.harvard.edu 
    mpec at marsden.cfa.harvard.edu
       
    Tue Jan  9 21:04:44 EST 2024
    
    
  
M.P.E.C. 2024-A104                             Issued 2024 January 10, 02:03 UT
     The Minor Planet Electronic Circulars contain information on unusual
         minor planets, routine data on comets and natural satellites,
         and occasional editorial announcements.  They are published
    on behalf of Division F of the International Astronomical Union by the
          Minor Planet Center, Smithsonian Astrophysical Observatory,
                          Cambridge, MA 02138, U.S.A.
			  
             Prepared using the Tamkin Foundation Computer Network
                              MPC at CFA.HARVARD.EDU
            URL https://www.minorplanetcenter.net/    ISSN 1523-6714
                                    2024 AL2                                    
Observations:
     K24A02L*1C2024 01 09.38027209 36 42.124+44 35 04.06         18.69GVEA104703
     K24A02L 1C2024 01 09.38455409 36 58.734+44 33 33.52         19.41GVEA104703
     K24A02L 1C2024 01 09.38669209 37 06.964+44 32 45.17         19.23GVEA104703
     K24A02L mC2024 01 09.42068109 39 17.039+44 20 17.56         19.08GVEA104V06
     K24A02L mC2024 01 09.42081809 39 17.539+44 20 14.24         19.22GVEA104V06
     K24A02L mC2024 01 09.42095609 39 18.101+44 20 11.15         19.76GVEA104V06
     K24A02L mC2024 01 09.42109409 39 18.569+44 20 08.16         19.09GVEA104V06
     K24A02L 1C2024 01 09.43275709 40 02.672+44 15 46.22         19.26GVEA104703
     K24A02L 1C2024 01 09.43311109 40 03.947+44 15 40.10         19.19GVEA104703
     K24A02L 1C2024 01 09.43346609 40 05.290+44 15 31.72         19.16GVEA104703
     K24A02L 1C2024 01 09.43382009 40 06.589+44 15 23.76         18.94GVEA104703
     K24A02L mC2024 01 09.55407409 47 28.655+43 28 45.08         19.32GVEA104V06
     K24A02L mC2024 01 09.55421109 47 29.094+43 28 42.13         19.73GVEA104V06
     K24A02L mC2024 01 09.55434809 47 29.634+43 28 38.57         19.37GVEA104V06
     K24A02L mC2024 01 09.55448609 47 30.109+43 28 35.76         19.51GVEA104V06
     K24A02L KC2024 01 09.83969410 05 26.350+41 37 42.10         19.5 GVEA104J95
     K24A02L KC2024 01 09.84942810 05 58.039+41 34 28.85         19.3 GVEA104J95
     K24A02L KB2024 01 09.90668 10 08 54.27 +41 18 12.8                XEA104M45
     K24A02L KB2024 01 09.90851 10 08 59.59 +41 17 35.9          19.3 GXEA104M45
     K24A02L KB2024 01 09.91026 10 09 04.83 +41 17 01.3          19.4 GXEA104M45
     K24A02L KC2024 01 09.94910810 11 05.23 +41 03 21.2          19.6 GVEA104104
     K24A02L KC2024 01 09.95917210 11 34.01 +41 00 00.8                VEA104104
     K24A02L KC2024 01 09.98045410 12 31.88 +40 52 54.4          19.5 GVEA104L01
     K24A02L KC2024 01 09.98200710 12 36.21 +40 52 23.1          19.6 GVEA104L01
     K24A02L KC2024 01 09.98355710 12 40.49 +40 51 51.7          19.8 GVEA104L01
     K24A02L KC2024 01 09.98510710 12 44.78 +40 51 20.5          19.6 GVEA104L01
     K24A02L KC2024 01 09.98666110 12 49.09 +40 50 49.4          19.8 GVEA104L01
Observer details:
104 San Marcello Pistoiese.  Observers P. Bacci, M. Maestripieri.  Measurers
    P. Bacci, L. Tesi, G. Fagioli.  0.60-m F4 Reflector + CCD.
703 Catalina Sky Survey.  Observer G. J. Leonard.  Measurers E. C. Beshore, D.
    Fay, J. B. Fazekas, D. C. Fuls, A. R. Gibbs, A. D. Grauer, H. Groeller, J.
    K. Hogan, R. A. Kowalski, S. M. Larson, G. J. Leonard, D. Rankin, R. L.
    Seaman, F. C. Shelly, K. W. Wierzchos.  0.68-m Schmidt + 10K CCD.
J95 Great Shefford.  Observer P. Birtwhistle.  0.41-m f/6.3 Schmidt-Cassegrain
    + CCD.
L01 Visnjan Observatory, Tican.  Observers K. Korlevic, L. Poropat.  Measurer
    K. Korlevic.  1.0-m f/2.9 reflector + CCD.
M45 Starhopper Observatory, Sfantu Gheorghe.  Observer F. Ursache.  0.41-m
    f/7.5 reflector + CMO.
V06 Catalina Sky Survey-Kuiper.  Observer K. W. Wierzchos.  Measurers E. C.
    Beshore, D. Fay, J. B. Fazekas, D. C. Fuls, A. R. Gibbs, A. D. Grauer, H.
    Groeller, J. K. Hogan, R. A. Kowalski, S. M. Larson, G. J. Leonard, D.
    Rankin, R. L. Seaman, F. C. Shelly, K. W. Wierzchos.  1.55-m reflector +
    1K CCD.
Orbital elements:
2024 AL2                                                 Earth MOID = 0.0062 AU
Epoch 2023 Sept. 13.0 TT = JDT 2460200.5                Veres                   
M 320.73400              (2000.0)            P               Q                  
n   0.35032930     Peri.    0.23675     -0.18723314     -0.98139189             
a   1.9928980      Node   100.55483     +0.90118564     -0.18886061             
e   0.5029102      Incl.    2.48287     +0.39090689     -0.03466455             
P   2.81           H   27.55          G   0.15           U   7                  
Residuals in seconds of arc
240109 703  0.2-  0.1+    240109 703  0.1+  0.2+    240109 M45  0.6-  0.1-
240109 703  0.1-  2.2+    240109 703  0.2-  0.2+    240109 M45  0.5+  0.4+
240109 703  0.5-  0.2+    240109 V06  0.4+  0.3-    240109 104  0.4+  0.8-
240109 V06  0.2+  0.1+    240109 V06  0.2-  0.0     240109 104  0.4+  0.9-
240109 V06  0.0   0.2-    240109 V06  0.3+  0.2-    240109 L01  0.5+  0.5+
240109 V06  0.4+  0.2-    240109 V06  0.0   0.3+    240109 L01  0.6+  0.5+
240109 V06  0.2-  0.1-    240109 J95  0.5-  0.4-    240109 L01  0.3+  0.3+
240109 703  0.7+  1.2-    240109 J95  0.3+  0.4+    240109 L01  0.1+  0.4+
240109 703  0.0   0.6+    240109 M45  0.3+  0.1+    240109 L01  0.1+  0.7+
Ephemeris:
2024 AL2                 a,e,i = 1.99, 0.50, 2                   q = 0.9906
Date    TT    R. A. (2000) Decl.     Delta      r    Elong.  Phase     V
2023 12 11    01 03 38.5 -05 45 05   0.1019  1.0298   113.6    61.2    24.8
...
2023 12 26    01 15 29.0 -01 14 18   0.04816 0.9956   103.2    74.1    23.5
...
2024 01 03    02 03 29.8 +13 05 32   0.01958 0.9907   111.5    67.4    21.4
...
2024 01 09    09 06 37.8 +46 47 45   0.01174 0.9933   147.0    32.6    19.3
2024 01 10    10 13 03.6 +40 48 04   0.01412 0.9942   139.5    40.0    19.9
2024 01 11    10 51 02.4 +35 30 57   0.01705 0.9953   133.6    45.7    20.4
...
2024 01 17    11 59 00.5 +21 30 36   0.03808 1.0049   122.9    55.3    22.5
...
2024 01 25    12 14 50.2 +16 41 51   0.06796 1.0256   125.7    51.2    23.7
...
2024 02 09    12 13 22.0 +14 23 48   0.1254  1.0854   139.9    35.9    24.7
M. P. C. Staff               (C) Copyright 2024 MPC           M.P.E.C. 2024-A104
    
    
More information about the Iaude
mailing list